Flag for U.S.A. Weather past 2 weeks in Cedar Rapids, Iowa, U.S.A.

Now
45 °F

Clear.


Feels Like: 41 °F
Forecast: 43 / 63 °F
Wind: 8 mph from Northwest

Location: Cedar Rapids Municipal Airport

Current Time: Oct 20, 2014 at 6:42:53 AM

Latest Report: Oct 20, 2014 at 5:52 AM


Visibility: 10 mi

Pressure: 29.91 "Hg

Humidity: 93%

Dew point: 43 °F

Location of Cedar RapidsLocation

Historic Weather in Cedar Rapids — Graph

°F

Cedar Rapids temperature yesterday

Maximum temperature yesterday: 62 °F (at 2:52 PM)
Minimum temperature yesterday: 33 °F (at 5:59 AM)
Average temperature yesterday: 48 °F

Past Weeks' High & Low Weather Summary

 TemperatureHumidityPressure
High70 °F (Oct 16, 3:52 PM)100% (Oct 6, 6:52 AM)30.25 "Hg (Oct 6, 6:52 AM)
Low33 °F (Oct 19, 5:59 AM)30% (Oct 8, 1:52 PM)28.01 "Hg (Oct 17, 12:20 AM)
Average51 °F77%29.86 "Hg
* Reported Oct 5 4:52 AM — Oct 20 4:52 AM, Cedar Rapids, Weather by CustomWeather, © 2014

Note: Actual official high and low records may vary slightly from our data, if they occured in-between our weather recording intervals... More about our weather records

Advertising

Cedar Rapids weather history for previous 24 hours

 ConditionsComfort  
Time TempWeatherWind HumidityBarometerVisibility
4:52 AM
Oct 20
46 °FClear.8 mph89%29.89 "Hg10 mi
3:52 AM48 °FClear.10 mph89%29.87 "Hg10 mi
2:52 AM47 °FClear.7 mph93%29.87 "Hg10 mi
1:52 AM49 °FClear.8 mph86%29.86 "Hg10 mi
12:52 AM51 °FClear.10 mph80%29.86 "Hg10 mi
11:52 PM
Oct 19
52 °FClear.12 mph77%29.87 "Hg10 mi
9:52 PM53 °FClear.10 mph74%29.90 "Hg10 mi
8:52 PM51 °FClear.8 mph77%29.92 "Hg10 mi
7:52 PM53 °FClear.8 mph72%29.93 "Hg10 mi
6:52 PM56 °FSunny.7 mph65%29.93 "Hg10 mi
5:52 PM60 °FSunny.13 mph56%29.92 "Hg10 mi
4:52 PM62 °FPassing clouds.14 mph50%29.94 "Hg10 mi
3:52 PM62 °FSunny.17 mph52%29.96 "Hg10 mi
2:52 PM62 °FSunny.15 mph52%30.00 "Hg10 mi
1:52 PM59 °FSunny.14 mph58%30.03 "Hg10 mi
12:52 PM58 °FSunny.15 mph60%30.07 "Hg10 mi
11:52 AM55 °FSunny.16 mph69%30.10 "Hg10 mi
10:52 AM52 °FSunny.14 mph77%30.13 "Hg10 mi
9:52 AM47 °FSunny.12 mph86%30.15 "Hg10 mi
8:52 AM42 °FSunny.10 mph96%30.16 "Hg10 mi
7:52 AM35 °FClear.5 mph100%30.17 "Hg10 mi
6:52 AM33 °FClear.6 mph100%30.17 "Hg10 mi
Weather by CustomWeather, © 2014

See weather overviewHow to use our weather pages